Location: ČR
(50.0000°N, 15.0000°E)
Time: 16:43:24
(UTC+00:00)

Envisat - Pass Details

Date: 02 October 2021
Orbit: 764 x 766 km, 98.2° (Epoch: 22 October)

Event Time Altitude Azimuth Distance (km) Brightness Sun altitude
Rises 02:55:45 0° 27° (NNE) 3,243 7.0 -20.7°
Reaches altitude 10° 02:58:50 10° 46° (NE) 2,310 6.4 -20.2°
Maximum altitude 03:02:14 18° 88° (E) 1,824 5.9 -19.7°
Drops below altitude 10° 03:05:37 10° 131° (SE) 2,298 5.9 -19.2°
Sets 03:08:39 0° 150° (SSE) 3,218 6.4 -18.8°
